Tracking 18987 objects as of 25-Feb-2018
HD Live streaming from Space Station
objects crossing your sky now

NOAA 16 DEB

Track NOAA 16 DEB now!
10-day predictions


NORAD ID: 41508
Int'l Code: 2000-055MG
Perigee: 825.4 km
Apogee: 870.3 km
Inclination: 98.9 °
Period: 101.7 minutes
Semi major axis: 7218 km
RCS: Unknown
Launch date: September 21, 2000
Source: United States (US)
Launch site: AIR FORCE WESTERN TEST RANGE (AFWTR)

Note: This is SATELLITE DEBRIS
aabbcc
Your satellite tracking list
Your tracking list is empty




NASA's NSSDC Master Catalog

Two Line Element Set (TLE):
1 41508U 00055MG  18052.99678480  .00000526  00000-0  29113-3 0  9997
2 41508  98.8890 133.7945 0031095   5.1939 354.9551 14.15457668 95406
Source of the keplerian elements: AFSPC